Location: Innerarity Island Observatory
(30.3139°N, 87.4867°W)
Time: 18:45:22
(UTC-05:00)

OPAL - Visible Passes

Search period start: 27 May 2015 00:00
Search period end: 06 June 2015 00:00
Orbit: 744 x 795 km, 100.2° (Epoch: 27 May)

Date Brightness Start Highest point End Pass type
(mag) Time Alt. Az. Time Alt. Az. Time Alt. Az.
27 May 9.1 21:39:17 10° N 21:44:00 35° WNW 21:48:35 10° SW visible
28 May 7.6 21:03:35 10° NNE 21:08:47 84° WNW 21:13:53 10° SSW visible
29 May 8.0 20:28:35 10° NNE 20:33:24 40° E 20:38:10 10° S visible
29 May 10.0 22:08:20 10° NNW 22:12:01 19° WNW 22:15:28 10° WSW visible
30 May 8.7 21:31:59 10° N 21:36:53 44° WNW 21:41:41 10° SW visible
31 May 7.4 20:56:28 10° NNE 21:01:39 77° ESE 21:06:43 10° S visible
01 Jun 8.3 20:21:41 10° NE 20:26:11 31° E 20:30:42 10° SSE visible
01 Jun 9.7 22:00:50 10° NNW 22:04:56 24° WNW 22:08:52 10° WSW visible
02 Jun 8.2 21:24:44 10° N 21:29:47 55° WNW 21:34:43 10° SSW visible
03 Jun 7.5 20:49:23 10° NNE 20:54:29 61° ESE 20:59:29 10° S visible
03 Jun 10.4 22:30:35 10° NW 22:32:54 13° WNW 22:34:55 10° W visible
04 Jun 8.6 20:14:52 10° NE 20:18:58 25° E 20:23:08 10° SSE visible
04 Jun 9.4 21:53:24 10° N 21:57:51 29° WNW 22:02:08 10° SW visible
05 Jun 7.8 21:17:32 10° N 21:22:39 70° WNW 21:27:40 10° SSW visible
